Regional Weather Roundup
Issued by NWS

Home | Current Version | Previous Version | Text Only | Print | Product List | Glossary On
Versions: 1 2 3 4 5 6 7 8 9 10 11 12 13 14 15 16 17 18 19 20 21 22 23 24 25 26 27 28 29 30 31 32 33 34 35 36 37 38 39 40 41 42 43 44 45 46 47 48 49 50
000
ASUS43 KDTX 231110
RWRMI
MICHIGAN HOURLY REGIONAL WEATHER ROUNDUP
NATIONAL WEATHER SERVICE DETROIT/PONTIAC MI
700 AM EDT SAT MAY 23 2015

NOTE: "FAIR" INDICATES FEW OR NO CLOUDS BELOW 12,000 FEET WITH NO
SIGNIFICANT WEATHER AND/OR OBSTRUCTION TO VISIBILITY.

MIZ047>049-052>055-059>063-066>070-074>076-081>083-231200-
SOUTHEAST LOWER MICHIGAN

CITY           SKY/WX    TMP DP  RH WIND       PRES   REMARKS
ADRIAN         PTCLDY    42  36  79 CALM      30.38R
ALMA           CLEAR     35  34  96 CALM      30.36R
ANN ARBOR      CLEAR     36  33  89 CALM      30.38R
BAD AXE        CLEAR     38  25  60 S9        30.37R WCI  31
CARO           CLEAR     32  30  94 CALM      30.36R
DETROIT CITY   CLEAR     41  30  65 CALM      30.40R
DETROIT        MOCLDY    43  32  65 N3        30.39R
FLINT          CLEAR     38  31  76 CALM      30.38R
GROSSE ILE     CLEAR     45  34  65 CALM      30.38R
HILLSDALE      CLEAR     45  40  82 SE3       30.37R
HOWELL         CLEAR     38  31  74 CALM      30.37R

CITY           SKY/WX    TMP DP  RH WIND       PRES   REMARKS
JACKSON        CLEAR     42  36  79 SE3       30.37R
LAMBERTVILLE   CLEAR     43  37  81 CALM      30.38R
LANSING        CLEAR     44  36  73 S6        30.37R
LAPEER         FAIR      32  31  94 CALM      30.38R
MASON          CLEAR     39  34  80 S5        30.37R
MONROE         CLEAR     43  39  87 CALM      30.36R
MT. CLEMENS    CLEAR     36  32  84 CALM      30.37R
PONTIAC        PTCLDY    38  31  76 CALM      30.37R
PORT HOPE        N/A     42  23  46 SW7       30.34R
PORT HURON     CLEAR     30  30 100 CALM      30.39R
TRI CITIES     CLEAR     42  31  64 S7        30.36R
MIDLAND        FAIR      34  33  96 CALM      30.36R
TROY           CLEAR     42  29  60 CALM      30.40R
SAGINAW HB     CLEAR     37  28  70 S3        30.36R
$$
MIZ043>046-050>051-056>058-064>065-071>073-077>080-231200-
SOUTHWEST LOWER MICHIGAN

CITY           SKY/WX    TMP DP  RH WIND       PRES   REMARKS
BATTLE CREEK   CLEAR     45  37  73 S3        30.37R
BENTON HARBOR  CLEAR     44  34  67 E6        30.34R
BIG RAPIDS     CLEAR     35  32  89 CALM      30.34R
COLDWATER      CLEAR     43  37  81 SE3       30.36R
FREMONT        FAIR      38  34  85 E3        30.35R
HOLLAND        CLEAR     45  34  65 S6        30.35R
GRAND RAPIDS   PTCLDY    43  35  73 SE7       30.35R
IONIA          FAIR      44  36  74 S5        30.34R
KALAMAZOO      CLEAR     47  35  63 S5        30.37R
LUDINGTON      CLEAR     36  33  90 CALM      30.34R
MARSHALL       CLEAR     42  38  86 CALM      30.36R
MOUNT PLEASANT CLEAR     36  35  96 CALM      30.35R FOG
MUSKEGON       CLEAR     41  34  76 CALM      30.35R
SOUTH HAVEN    CLEAR     47  34  58 S3        30.34R
$$
MIZ016>042-231200-
NORTHERN LOWER MICHIGAN

CITY           SKY/WX    TMP DP  RH WIND       PRES   REMARKS
ALPENA         CLEAR     32  28  85 CALM      30.32R
BEAVER ISLAND  CLEAR     46  28  50 SW10      30.28R
BELLAIRE       CLEAR     31  30  94 CALM      30.33R
CADILLAC       CLEAR     34  29  83 CALM      30.32R
CHARLEVOIX     CLEAR     40  30  68 CALM      30.33R
FRANKFORT      CLEAR     35  29  77 CALM      30.33R
GAYLORD        CLEAR     38  27  64 CALM      30.31R
GRAYLING       CLEAR     30  27  86 CALM      30.33R
HARBOR SPRINGS CLEAR     37  29  74 CALM      30.30R
HOUGHTON LAKE  CLEAR     32  31  96 S5        30.34R WCI  27
MANISTEE       CLEAR     32  28  86 E3        30.34R
OSCODA         CLEAR     37  32  84 S3        30.34R
PELLSTON       CLEAR     30  27  88 CALM      30.29R
ROGERS CITY    CLEAR     38  29  67 SW6       30.31R WCI  34
TRAVERSE CITY  PTCLDY    37  30  75 CALM      30.32R
$$
MIZ007>008-015-231200-
EASTERN UPPER MICHIGAN

CITY           SKY/WX    TMP DP  RH WIND       PRES   REMARKS
KINROSS        CLEAR     39  34  81 S5        30.26R
MACKINAC ISLAN CLEAR     43  29  58 S9        30.27S
NEWBERRY       CLEAR     44  28  52 SW17G23   30.23S
S. S. MARIE    CLEAR     32  27  81 E5        30.26R WCI  27
MUNISING         N/A     48  29  47 SW15G22   30.21R
$$
MIZ004>006-011>014-085-231200-
CENTRAL UPPER MICHIGAN

CITY           SKY/WX    TMP DP  RH WIND       PRES   REMARKS
MANISTIQUE     CLEAR     44  35  71 SW9       30.26R
ESCANABA       CLEAR     36  30  80 CALM      30.26R
MENOMINEE      CLEAR     45  30  57 W5        30.28R
SAWYER-GWINN   CLEAR     37  28  70 SW6       30.23R WCI  33
$$
MIZ001>003-009>011-084-231200-
WESTERN UPPER MICHIGAN

CITY           SKY/WX    TMP DP  RH WIND       PRES   REMARKS
IRON MOUNTAIN  CLEAR     33  29  85 N3        30.25R
HOUGHTON       CLEAR     58  33  39 W18       30.16R
COPPER HARBOR    N/A     64  33  31 NW10G22   30.10S
IRONWOOD       CLEAR     54  36  50 SW9       30.20R
$$

ABBREVIATIONS USED IN REMARKS
   TC - TEMPERATURE IN CELSIUS
  WCI - WIND CHILL INDEX
   HX - HEAT INDEX
  VSB - VISIBILITY



USA.gov is the U.S. government's official web portal to all federal, state and local government web resources and services.